Location: Luxembourg
(49.6117°N, 6.1300°E)
Time: 21:39:31
(UTC+01:00)

N. Korean satellite - Visible Passes

Search period start: 03 December 2021 00:00
Search period end: 13 December 2021 00:00
Orbit: 447 x 495 km, 97.3° (Epoch: 03 December)

Date Brightness Start Highest point End Pass type
(mag) Time Alt. Az. Time Alt. Az. Time Alt. Az.
03 Dec 9.9 04:47:27 10° ENE 04:48:36 11° E 04:49:44 10° ESE visible
03 Dec 6.4 06:18:49 10° N 06:22:09 55° WNW 06:25:27 10° SSW visible
04 Dec 6.8 05:50:16 10° NNE 05:53:40 63° ESE 05:57:00 10° S visible
04 Dec 8.4 07:25:11 10° NW 07:26:23 11° WNW 07:27:33 10° W visible
04 Dec 9.7 18:02:56 10° SW 18:05:02 15° W 18:07:09 10° NW visible
05 Dec 8.5 05:22:03 10° NE 05:25:02 28° E 05:27:59 10° SSE visible
05 Dec 7.6 06:55:27 10° NNW 06:58:07 22° WNW 07:00:45 10° WSW visible
05 Dec 8.7 17:33:11 10° SSW 17:36:19 30° W 17:39:27 10° NNW visible
06 Dec 9.6 04:54:28 10° ENE 04:56:17 14° E 04:58:07 10° ESE visible
06 Dec 6.6 06:26:29 10° N 06:29:44 44° WNW 06:32:58 10° SW visible
07 Dec 6.4 05:57:51 10° NNE 06:01:14 80° ESE 06:04:37 10° S visible
07 Dec 9.9 18:11:11 10° WSW 18:12:42 12° W 18:14:12 10° WNW visible
08 Dec 8.0 05:29:30 10° NNE 05:32:38 34° E 05:35:45 10° SSE visible
08 Dec 7.8 07:03:13 10° NNW 07:05:37 18° WNW 07:08:00 10° WSW visible
08 Dec 9.1 17:41:00 10° SSW 17:43:55 24° W 17:46:49 10° NW visible
09 Dec 9.3 05:01:37 10° NE 05:03:53 17° E 05:06:09 10° SE visible
09 Dec 6.9 06:34:06 10° N 06:37:14 36° WNW 06:40:21 10° SW visible
09 Dec 7.4 17:11:50 10° S 17:15:14 53° W 17:18:38 10° NNW visible
10 Dec 6.8 06:05:21 10° N 06:09:36 48° SSW 06:12:07 10° SSW visible
11 Dec 8.2 05:36:52 10° NNE 05:41:32 27° SSE 05:43:22 10° S visible
11 Dec 8.4 07:10:56 10° NNW 07:15:39 - WSW 07:11:43 13° NW visible
11 Dec 9.4 17:48:47 10° SW 17:51:26 20° W 17:54:04 10° NW visible
12 Dec 9.3 05:13:13 14° SE 05:13:13 14° SE 05:13:59 10° SE visible
12 Dec 8.5 06:41:38 10° N 06:47:19 12° SW 06:47:38 10° SW visible
12 Dec 7.9 17:19:23 10° S 17:22:42 42° W 17:25:59 10° NNW visible
